STARLINK-4573, 53623

Orbit data source: Space-Track

STARLINK-4573, 53623 is a payload satellite owned by SpaceX/Seattle (US) in LEO that was launched on Sun, 28 Aug 2022 UTC via an FALCON 9 launch vehicle from the Air Force Eastern Test Range (AFETR). Payload-class satellites include a variety of spacecraft equipped with specific instruments for various scientific and technological missions. These include communications satellites like Starlink; space stations such as the ISS; scientific satellites like the Hubble; Earth observation satellites from companies like Planet Labs, Umbra, and HawkEye 360; GPS; miniature CubeSats for education and research; and military/defense satellites.

Loading next visibility...
Identifier
53623, 2022-104AM
Orbit
LEO
Country
Flag of USUS
Related business
Manufacturer
SpaceX/Seattle
Mission
Operational Commercial Communications
Bus & Motor
STARLINK, Unknown motor
Mass
300 kg wet, ~290 kg dry
Launch date (UTC)
2022-08-28 (3 years ago)
Launch vehicle
FALCON 9
Launch site
Air Force Eastern Test Range (AFETR)
Object type
Payload
Rocket body
Debris
Shape & HBR
Box + 1 Pan, 4.4 m
Radar Cross Section
13.562 m², Large (>1 m²)

Expand to show TLE details & history
Last TLE update: 15 hours ago

TLE from 15 hours ago
0 STARLINK-4573
1 53623U 22104AM  25258.13293503  .00002521  00000-0  17640-3 0  9997
2 53623  53.2153 302.1061 0001052  86.8655 273.2457 15.08847662169248
Epoch: 2025-09-15T03:11Z
TLE epoch observation values (Epoch: 2025-09-15T03:11:25.586Z)
Latitude
-0.00007°
Longitude
-100.09253°
Altitude
540.576 km
Speed
7.593 km/s
True Right ascension
20h 08m 25s
True Declination
0° 00' 00"
Sunlit
Object was in full shadow at epoch
Visualization orbit readout
Latitude
Unknown
Longitude
Unknown
Altitude
Unknown
Speed
Unknown
Apparent Right ascension
Unknown
Apparent Declination
Unknown
Sunlit
N/A
Visualization observer readout
Local Sidereal Time
11:13:26
Azimuth
Unknown
Elevation
Unknown
Doppler factor
Unknown
Orbital elements
Apogee altitude
540.693 km
Perigee altitude
539.237 km
Semi-major axis
6,918.102 km
Eccentricity
0.00011
Inclination
53.2153°
RAAN
302.1061°
Arg. of periapsis
86.8655°
True anomaly
273.23366°
Mean anomaly
273.2457°
Eccentric anomaly
273.23968°
Mean motion
3.77192 °/min
Orbital period
95.44 mins
BSTAR
0.0001764
Loading maneuver chart data...
Computing Atmospheric mass density...
Loading historical data...
Loading historical data...
Loading historical data...
Loading historical data...
Loading historical data...
Loading historical data...
Loading historical data...

Documentation

Showing up to 5 results
|